This is the latest recevied weather packets stored in our database for station/object LU5DTF-1. If no packets are shown the sender has not sent any weather packets the latest 10 day(s).
| Time | Temp. | Humidity | Pressure | Rain* | Wind** | Luminosity | Snow |
|---|---|---|---|---|---|---|---|
| 1778121600 | 15.56° C | 95% | 999.2 hPa | 3.81 mm | - | - | - |
| 1778121301 | 15.56° C | 95% | 998.5 hPa | 3.81 mm | - | - | - |
| 1778121000 | 15.56° C | 95% | 999.5 hPa | 3.56 mm | - | - | - |
| 1778120700 | 15.56° C | 95% | 999.9 hPa | 3.3 mm | - | - | - |
| 1778120400 | 15.56° C | 95% | 1000.1 hPa | 2.79 mm | - | - | - |
| 1778120100 | 15.56° C | 95% | 1000.6 hPa | 1.27 mm | - | - | - |
| 1778119801 | 15.56° C | 95% | 999.8 hPa | 0.76 mm | - | - | - |
| 1778119500 | 15.56° C | 95% | 999.2 hPa | 0.51 mm | - | - | - |
| 1778119201 | 15.56° C | 95% | 998.9 hPa | 0.25 mm | - | - | - |
| 1778118900 | 15.56° C | 95% | 998.9 hPa | 0 mm | - | - | - |
| 1778118600 | 15.56° C | 95% | 999.4 hPa | 0.25 mm | - | - | - |
| 1778118300 | 15.56° C | 95% | 999.2 hPa | 0.76 mm | - | - | - |
| 1778118001 | 15.56° C | 95% | 998.4 hPa | 1.78 mm | - | - | - |
| 1778117701 | 15.56° C | 95% | 999.1 hPa | 3.3 mm | - | - | - |
| 1778117400 | 15.56° C | 95% | 999.1 hPa | 4.06 mm | - | - | - |
| 1778117101 | 15.56° C | 95% | 999.4 hPa | 4.57 mm | - | - | - |
| 1778116800 | 15.56° C | 95% | 999.5 hPa | 4.83 mm | - | - | - |
| 1778116500 | 15.56° C | 95% | 999.8 hPa | 4.83 mm | - | - | - |
| 1778116201 | 15.56° C | 95% | 999 hPa | 4.83 mm | - | - | - |
| 1778115900 | 15° C | 95% | 998 hPa | 4.83 mm | - | - | - |
| 1778115601 | 15° C | 95% | 998.2 hPa | 4.83 mm | - | - | - |
| 1778115301 | 15° C | 95% | 997.9 hPa | 4.83 mm | - | - | - |
| 1778115001 | 15° C | 95% | 999.7 hPa | 4.83 mm | - | - | - |
| 1778114700 | 15° C | 95% | 999 hPa | 4.83 mm | - | - | - |
| 1778114400 | 15.56° C | 95% | 1000.8 hPa | 6.1 mm | - | - | - |
* Rain latest hour (hover to see other rain measurements)
** Current wind speed in m/s (hover to see current wind gust speed)